Regional Weather Roundup
Issued by NWS Sterling, VA

Home | Current Version | Previous Version | Text Only | Print | Product List | Glossary On
Versions: 1 2 3 4 5 6 7 8 9 10 11 12 13 14 15 16 17 18 19 20 21 22 23 24 25 26 27 28 29 30 31 32 33 34 35 36 37 38 39 40 41 42 43 44 45 46 47 48 49 50
000
ASUS41 KLWX 282010
RWRLWX

REGIONAL WEATHER ROUNDUP
NATIONAL WEATHER SERVICE BALTIMORE MD/WASHINGTON DC
400 PM EDT SUN AUG 28 2016

Note: "FAIR" indicates few or no clouds below 12,000 feet
with no significant weather and/or obstructions to visibility.
 TC=TEMPERATURE CELSIUS

 * =Non NWS site. Station does not report precipitation (e.g. rain,
    snow, etc.), thunder, or fog.

DCZ001-MDZ009-015-VAZ040>042-051-053>054-282100-
WASHINGTON METRO

CITY           SKY/WX    TMP DP  RH WIND       PRES   REMARKS
WASHINGTON NAT MOSUNNY   89  60  37 SE9       30.18F
DULLES         MOSUNNY   89  59  36 VRB3      30.18F
ANDREWS AFB    SUNNY     86  63  45 SE10      30.18F
FT BELVOIR     SUNNY     88  61  40 SE6       30.17F
COLLEGE PARK*  SUNNY     86  61  42 SE5       30.18F
LEESBURG*      SUNNY     90  68  48 NE5       30.19F HX  93
MANASSAS*      SUNNY     88  64  45 CALM      30.18F
GAITHERSBURG*  SUNNY     86  64  48 SE8       30.23F

$$

MDZ006>007-011-014-282100-
BALTIMORE METRO

CITY           SKY/WX    TMP DP  RH WIND       PRES   REMARKS
BWI AIRPORT    MOSUNNY   86  61  42 E7        30.18F
MD SCIENCE CTR   N/A     86  65  49 MISG      30.19F
MARTIN STATE   MOSUNNY   86  72  62 S3        30.20F HX  92
ANNAPOLIS      SUNNY     87  69  54 MISG      30.18F HX  91
FORT MEADE*    SUNNY    N/A N/A N/A E3        30.21F

$$

MDZ012-015-019>023-282100-
MARYLAND EASTERN SHORE

CITY           SKY/WX    TMP DP  RH WIND       PRES   REMARKS
OCEAN CITY     SUNNY     83  69  62 E9        30.19F
SALISBURY      SUNNY     85  60  42 NE15      30.18F
BAY BRIDGE AP* SUNNY     84  72  65 N7        30.18F
CAMBRIDGE*     SUNNY     86  63  45 NE6       30.18F
EASTON*        SUNNY     90  70  51 NE7       30.21F HX  95

$$

MDZ017>025-282100-
SOUTHERN MARYLAND

CITY           SKY/WX    TMP DP  RH WIND       PRES   REMARKS
PATUXENT RIVER MOSUNNY   85  65  51 VRB3      30.18F
ST INIGOES     SUNNY     87  66  49 VRB5      30.17F
LEONARDTOWN*   SUNNY     84  64  51 N3        30.19F

$$

MDZ003>005-282100-
NORTH CENTRAL MARYLAND

CITY           SKY/WX    TMP DP  RH WIND       PRES   REMARKS
FREDERICK*     MOSUNNY   88  70  55 SW6       30.21F HX  92
HAGERSTOWN APT SUNNY     88  61  40 S7        30.19F

$$

MDZ501>502-282100-
WESTERN MARYLAND

CITY           SKY/WX    TMP DP  RH WIND       PRES   REMARKS
OAKLAND*         N/A     79  66  65 SE5       30.30F
CUMBERLAND*    SUNNY     93  64  38 E7        30.19F HX  95

$$

VAZ025>031-282100-
SHENANDOAH VALLEY

CITY           SKY/WX    TMP DP  RH WIND       PRES   REMARKS
WINCHESTER*    SUNNY     88  63  42 SE7       30.19F
FRONT ROYAL*   FAIR      86  68  54 E7        30.18F
LURAY*         FAIR      90  64  43 CALM      30.19F HX  91
NEW MARKET*    FAIR     N/A N/A N/A NE3       30.17F
STAUNTON*      SUNNY     86  63  44 SE5       30.23F
WAYNESBORO*    FAIR      86  57  37 SE6       30.23F

$$

WVZ021-048>050-054>055-282100-
EASTERN WEST VIRGINIA PANHANDLE

CITY           SKY/WX    TMP DP  RH WIND       PRES   REMARKS
MARTINSBURG    SUNNY     87  64  46 SE8       30.18F
PETERSBURG*    SUNNY     93  69  44 E3        30.17F HX  98

$$

VAZ036>039-050-282100-
CENTRAL FOOTHILLS

CITY           SKY/WX    TMP DP  RH WIND       PRES   REMARKS
CHARLOTTESVILL SUNNY     91  62  37 NE8       30.18F HX  91
CULPEPER*      SUNNY     90  68  48 NE3       30.18F HX  94
ORANGE*          N/A     90  64  43 N5        30.20F HX  91
GORDONSVILLE*  FAIR      88  66  48 CALM      30.17F HX  90
WARRENTON*     FAIR      89  60  36 E6        30.18F

$$

VAZ055>057-282100-
NORTH AND CENTRAL PIEDMONT

CITY           SKY/WX    TMP DP  RH WIND       PRES   REMARKS
FREDERICKSBRG*   N/A     89  68  49 E9        30.16F HX  92
STAFFORD*      SUNNY     89  64  43 E7        30.21F HX  91

$$

NCZ024-NYZ072-PAZ021-071-VAZ022-071-282100-
OTHER REGIONAL OBSERVATIONS

CITY           SKY/WX    TMP DP  RH WIND       PRES   REMARKS
NEW YORK CITY  SUNNY     85  59  41 VRB3      30.22F
PHILADELPHIA   MOSUNNY   88  62  41 SW7       30.18F
PITTSBURGH     PTSUNNY   88  69  53 SW6       30.17F HX  92
ROANOKE        MOSUNNY   89  60  37 SE9       30.21F
RICHMOND       PTSUNNY   88  65  46 E10       30.16F HX  90
RALEIGH        PTSUNNY   89  65  44 NE10      30.14F HX  91

$$

ANZ530>537-282100-
MARINE OBSERVATIONS

STATION/POSITION TIME  TEMP    WIND        PRES
                       AIR SEA DIR/SP/G
                 (UTC) (F)     (DEG/KT/KT) (MB)
THOMAS PT LIGHT  2000   82 83  360/  7/  8 1023.2F
BALT KEY BRIDGE  1942   82     130/  4/  5 1022.5F
COVE POINT       1942   80     360/ 11/ 13 1022.5F
LEWISETTA        1942   82 85   90/  5/  6 1021.6F
SOLOMONS ISLAND  1942   83 85  110/  5/  5   N/A
PINEY POINT      1948          130/  9/ 10   N/A

$$




USA.gov is the U.S. government's official web portal to all federal, state and local government web resources and services.